Powrót do katalogu

SL-14 R/B

AktywnyPO
NORAD 14700·ROCKET BODY·🇷🇺 Russia

Wystrzelony Feb 8, 1984 z Plesetsk Cosmodrome

Loading…

Następne Przeloty (najbliższe 24 godziny)

TLE

ŚwieżeSource: Space-Track

Epoka: Sep 14, 2026, 10:43 UTC

1 14700U 84013B   26257.44668983  .00000328  00000-0  34897-4 0  9996
2 14700  82.5333 238.9873 0018467 349.6311 167.6506 14.85724128280598

Śledź SL-14 R/B w czasie rzeczywistym z AllMySat

Download on the App Store